Weather History for Bradford, PA

Change the Weather History Date:

Friday, December 6, 2013

  Actual Average Record
Temperature  
Mean Temperature 30 °F 29 °F  
Max Temperature 35 °F 36 °F 64 °F (1998)
Min Temperature 25 °F 22 °F -4 °F (2007)
Degree Days  
Heating Degree Days 35 31  
Month to date heating degree days 179 183  
Since 1 July heating degree days 1967 2018  
Cooling Degree Days 0 0  
Month to date cooling degree days 0 0  
Year to date cooling degree days 334 193  
Moisture  
Dew Point 25 °F    
Average Humidity 79    
Maximum Humidity 89    
Minimum Humidity 69    
Precipitation  
Precipitation 0.24 in 0.12 in 0.85 in (1962)
Month to date precipitation 0.35 0.71  
Year to date precipitation 32.38 41.77  
Sea Level Pressure  
Sea Level Pressure 30.10 in    
Wind  
Wind Speed 7 mph (NW)    
Max Wind Speed 16 mph    
Max Gust Speed 19 mph    
Visibility 6 miles    
Events Rain , Snow    
T = Trace of Precipitation, MM = Missing Value Source: NWS Daily Summary

Daily Weather History Graph

Daily Weather History Graph

Search for Another Location

Airport:

Trip Planner

Search our weather history database for the weather conditions in past years. The results will help you decide how hot, cold, wet, or windy it might be!

Date:

Astronomy

Dec. 06, 2013 Rise Set
Actual Time 7:27 AM EST 4:43 PM EST
Civil Twilight 6:56 AM EST 5:15 PM EST
Nautical Twilight 6:21 AM EST 5:49 PM EST
Astronomical Twilight 5:47 AM EST 6:23 PM EST
Moon 10:29 AM EST (12/6) 9:15 PM EST (12/6)
Length of Visible Light 10h 18m
Length of Day
9h 16m
Waxing Crescent, 19% of the Moon is Illuminated
Dec 6
Waxing Crescent
Dec 9
First Quarter
Dec 17
Full
Dec 25
Last Quarter
Jan 1
New

Hourly Weather History & Observations

Time (EST) Temp. Windchill Dew Point Humidity Pressure Visibility Wind Dir Wind Speed Gust Speed Precip Events Conditions
12:04 AM 35.1 °F 27.4 °F 30.9 °F 85% 29.96 in 6.0 mi NNW 10.4 mph - 0.01 in Rain Light Rain
12:53 AM 34.0 °F 29.8 °F 30.9 °F 89% 30.00 in 6.0 mi WNW 4.6 mph - 0.05 in Rain Light Rain
1:43 AM 33.1 °F 25.5 °F 28.9 °F 85% 29.99 in 4.0 mi NW 9.2 mph - 0.09 in Rain Heavy Rain
1:45 AM 33.1 °F 24.4 °F 28.9 °F 85% 30.00 in 4.0 mi NW 11.5 mph 16.1 mph 0.09 in Rain Light Freezing Rain
1:53 AM 33.1 °F 24.4 °F 28.9 °F 85% 30.01 in 5.0 mi NW 11.5 mph - 0.09 in Rain Light Freezing Rain
2:38 AM 33.1 °F 26.9 °F 28.9 °F 85% 29.97 in 10.0 mi NNW 6.9 mph - 0.02 in   Overcast
2:53 AM 33.1 °F 26.1 °F 28.9 °F 85% 30.01 in 7.0 mi NW 8.1 mph - 0.03 in Rain Light Freezing Rain
3:03 AM 33.1 °F 26.1 °F 28.9 °F 85% 30.02 in 9.0 mi West 8.1 mph - 0.00 in Rain Light Freezing Rain
3:53 AM 33.1 °F 26.1 °F 28.9 °F 85% 30.01 in 10.0 mi NW 8.1 mph - 0.01 in   Overcast
4:28 AM 32.0 °F 24.8 °F 28.9 °F 88% 30.00 in 7.0 mi WNW 8.1 mph - 0.01 in Rain Light Rain
4:33 AM 32.0 °F 24.2 °F 28.9 °F 88% 30.00 in 5.0 mi WNW 9.2 mph - 0.01 in Rain Light Freezing Rain
4:42 AM 32.0 °F 24.2 °F 28.0 °F 85% 30.01 in 4.0 mi WNW 9.2 mph - 0.01 in Rain Light Freezing Rain
4:49 AM 32.0 °F 26.4 °F 28.4 °F 87% 30.02 in 4.0 mi WNW 5.8 mph - 0.01 in Snow Light Snow
4:53 AM 32.0 °F 25.6 °F 28.9 °F 88% 30.04 in 6.0 mi NW 6.9 mph - 0.02 in   Overcast
5:01 AM 32.0 °F 24.2 °F 28.0 °F 85% 30.03 in 9.0 mi NW 9.2 mph - 0.00 in   Overcast
5:29 AM 32.0 °F 23.0 °F 28.0 °F 85% 30.03 in 8.0 mi WNW 11.5 mph - 0.00 in   Overcast
5:53 AM 32.0 °F 25.6 °F 28.0 °F 85% 30.07 in 10.0 mi WNW 6.9 mph - 0.00 in   Overcast
6:06 AM 30.9 °F 24.3 °F 28.0 °F 89% 30.05 in 2.5 mi WNW 6.9 mph - 0.00 in Snow Light Snow
6:10 AM 30.9 °F 22.8 °F 28.0 °F 89% 30.05 in 2.5 mi WNW 9.2 mph - 0.00 in Snow Light Snow
6:12 AM 30.9 °F 23.5 °F 28.0 °F 89% 30.05 in 3.0 mi NW 8.1 mph - 0.00 in Snow Light Snow
6:20 AM 30.9 °F 22.8 °F 27.0 °F 85% 30.05 in 6.0 mi NW 9.2 mph - 0.00 in Snow Light Snow
6:35 AM 30.9 °F 22.8 °F 27.0 °F 85% 30.05 in 9.0 mi NW 9.2 mph - 0.00 in   Overcast
6:53 AM 30.9 °F 23.5 °F 27.0 °F 85% 30.09 in 10.0 mi NW 8.1 mph - 0.00 in   Overcast
7:30 AM 30.9 °F - 27.0 °F 85% 30.06 in 10.0 mi Calm Calm - 0.00 in   Overcast
7:53 AM 30.9 °F 21.7 °F 27.0 °F 85% 30.12 in 10.0 mi WNW 11.5 mph - 0.00 in   Overcast
8:02 AM 30.9 °F 22.8 °F 26.1 °F 82% 30.07 in 10.0 mi WNW 9.2 mph - N/A   Overcast
8:42 AM 30.0 °F 22.4 °F 26.1 °F 85% 30.05 in 9.0 mi NW 8.1 mph - N/A   Overcast
8:53 AM 30.0 °F 22.4 °F 25.0 °F 82% 30.11 in 10.0 mi NW 8.1 mph - N/A   Overcast
9:03 AM 30.0 °F 21.7 °F 25.0 °F 82% 30.09 in 10.0 mi NW 9.2 mph - N/A   Overcast
9:39 AM 30.0 °F 23.2 °F 25.0 °F 82% 30.09 in 10.0 mi NNW 6.9 mph - N/A   Overcast
9:53 AM 30.0 °F 23.2 °F 25.0 °F 82% 30.15 in 10.0 mi NW 6.9 mph - N/A   Overcast
10:21 AM 30.0 °F 25.2 °F 26.1 °F 85% 30.10 in 10.0 mi NW 4.6 mph - N/A   Overcast
10:50 AM 30.2 °F 21.9 °F 24.8 °F 80% 30.12 in 10.0 mi NW 9.2 mph - N/A   Overcast
10:53 AM 30.0 °F 23.2 °F 25.0 °F 82% 30.16 in 10.0 mi WNW 6.9 mph - N/A   Overcast
11:15 AM 30.0 °F 25.2 °F 25.0 °F 82% 30.10 in 10.0 mi WNW 4.6 mph - N/A   Overcast
11:23 AM 30.0 °F 25.2 °F 25.0 °F 82% 30.09 in 10.0 mi NW 4.6 mph - N/A   Overcast
11:53 AM 30.0 °F 25.2 °F 25.0 °F 82% 30.14 in 10.0 mi WNW 4.6 mph - N/A   Overcast
12:05 PM 30.0 °F 25.2 °F 24.1 °F 79% 30.07 in 10.0 mi NW 4.6 mph - N/A   Overcast
12:53 PM 30.0 °F 22.4 °F 25.0 °F 82% 30.15 in 10.0 mi NW 8.1 mph - N/A   Overcast
1:35 PM 30.0 °F 24.1 °F 25.0 °F 82% 30.08 in 10.0 mi NW 5.8 mph - N/A   Overcast
1:49 PM 30.2 °F 22.6 °F 24.8 °F 80% 30.07 in 10.0 mi NNW 8.1 mph - N/A   Overcast
1:53 PM 30.0 °F 21.7 °F 25.0 °F 82% 30.13 in 10.0 mi North 9.2 mph - N/A   Overcast
2:47 PM 30.2 °F 21.9 °F 24.8 °F 80% 30.07 in 10.0 mi NNW 9.2 mph - N/A   Overcast
2:48 PM 30.9 °F 22.2 °F 25.0 °F 79% 30.13 in 10.0 mi NNW 10.4 mph - N/A   Overcast
3:53 PM 30.0 °F 22.4 °F 24.1 °F 79% 30.14 in 10.0 mi NNW 8.1 mph - N/A   Overcast
4:53 PM 28.9 °F 21.1 °F 21.9 °F 75% 30.16 in 10.0 mi NW 8.1 mph - N/A   Overcast
5:53 PM 28.0 °F 20.8 °F 19.9 °F 72% 30.16 in 10.0 mi NNW 6.9 mph - 0.00 in   Overcast
6:34 PM 28.0 °F 20.8 °F 21.0 °F 75% 30.11 in 2.5 mi WNW 6.9 mph - 0.00 in Snow Light Snow
6:39 PM 28.0 °F 21.7 °F 21.0 °F 75% 30.12 in 3.0 mi WNW 5.8 mph - 0.00 in Snow Light Snow
6:50 PM 26.6 °F 17.5 °F 19.4 °F 74% 30.12 in 1.8 mi NW 9.2 mph - 0.01 in Snow Light Snow
6:53 PM 26.1 °F 18.4 °F 19.9 °F 78% 30.19 in 1.2 mi NW 6.9 mph - 0.01 in Snow Light Snow
7:18 PM 26.1 °F 20.5 °F 21.9 °F 84% 30.11 in 1.0 mi North 4.6 mph - 0.01 in Snow Light Snow
7:32 PM 26.1 °F 20.5 °F 21.9 °F 84% 30.11 in 2.0 mi NW 4.6 mph - 0.02 in Snow Light Snow
7:42 PM 26.1 °F 20.5 °F 19.9 °F 78% 30.10 in 6.0 mi North 4.6 mph - 0.02 in Snow Light Snow
7:49 PM 26.6 °F 22.6 °F 17.6 °F 69% 30.11 in 8.0 mi NNW 3.5 mph - 0.02 in Snow Light Snow
7:53 PM 26.1 °F 21.9 °F 19.0 °F 75% 30.18 in 9.0 mi NNW 3.5 mph - 0.02 in   Overcast
8:18 PM 26.1 °F 21.9 °F 19.9 °F 78% 30.12 in 1.8 mi West 3.5 mph - 0.00 in Snow Light Snow
8:26 PM 26.1 °F 19.4 °F 19.9 °F 78% 30.13 in 1.5 mi NNW 5.8 mph - 0.00 in Snow Light Snow
8:53 PM 26.1 °F 21.9 °F 21.9 °F 84% 30.21 in 1.8 mi NNW 3.5 mph - 0.01 in Snow Light Snow
8:58 PM 26.1 °F 19.4 °F 21.9 °F 84% 30.14 in 2.0 mi NNW 5.8 mph - 0.00 in Snow Light Snow
9:15 PM 26.1 °F - 21.9 °F 84% 30.14 in 1.5 mi Calm Calm - 0.00 in Snow Light Snow
9:36 PM 26.1 °F 19.4 °F 21.9 °F 84% 30.15 in 2.0 mi NW 5.8 mph - 0.01 in Snow Light Snow
9:53 PM 26.1 °F 20.5 °F 21.0 °F 81% 30.22 in 2.5 mi WNW 4.6 mph - 0.01 in Snow Light Snow
10:11 PM 26.1 °F 19.4 °F 21.0 °F 81% 30.16 in 2.5 mi WNW 5.8 mph - 0.00 in Snow Light Snow
10:41 PM 25.0 °F 20.7 °F 21.9 °F 88% 30.15 in 1.8 mi NW 3.5 mph - 0.00 in Snow Light Snow
10:53 PM 26.1 °F 19.4 °F 21.9 °F 84% 30.24 in 2.5 mi NW 5.8 mph - 0.00 in Snow Light Snow
11:00 PM 26.1 °F 18.4 °F 21.9 °F 84% 30.17 in 3.0 mi NW 6.9 mph - 0.00 in Snow Light Snow
11:04 PM 26.1 °F 20.5 °F 21.9 °F 84% 30.18 in 2.5 mi NW 4.6 mph - 0.00 in Snow Light Snow
11:08 PM 26.1 °F 20.5 °F 21.9 °F 84% 30.17 in 1.8 mi NW 4.6 mph - 0.00 in Snow Light Snow
11:23 PM 26.1 °F 16.8 °F 21.9 °F 84% 30.17 in 2.5 mi NW 9.2 mph - 0.00 in Snow Light Snow
11:27 PM 26.1 °F 17.6 °F 21.0 °F 81% 30.17 in 3.0 mi WNW 8.1 mph - 0.00 in Snow Light Snow
11:44 PM 26.1 °F 18.4 °F 21.0 °F 81% 30.17 in 6.0 mi NW 6.9 mph - 0.00 in   Haze
11:53 PM 25.0 °F 17.1 °F 21.0 °F 85% 30.23 in 8.0 mi WNW 6.9 mph - 0.00 in   Overcast